STARLINK-33891, 63827

Orbit data source: Space-Track

STARLINK-33891, 63827 is a payload satellite owned by SpaceX/Seattle (US) in LEO that was launched on Sun, 04 May 2025 UTC via an FALCON 9 launch vehicle from the Air Force Eastern Test Range (AFETR). Payload-class satellites include a variety of spacecraft equipped with specific instruments for various scientific and technological missions. These include communications satellites like Starlink; space stations such as the ISS; scientific satellites like the Hubble; Earth observation satellites from companies like Planet Labs, Umbra, and HawkEye 360; GPS; miniature CubeSats for education and research; and military/defense satellites.

Loading next visibility...
Identifier
63827, 2025-092Z
Orbit
LEO
Last TLE update
9 hours ago
Origin
Manufacturer
SpaceX/Seattle
Mission
Operational spacecraft
Bus & Motor
STARLINK V2MO, Unknown motor
Mass
575 kg wet, ~530 kg dry
Launch date (UTC)
2025-05-04 (1 week ago)
Launch vehicle
FALCON 9
Launch site
Air Force Eastern Test Range (AFETR)
Object type
Payload
Rocket body
Debris
Shape & HBR
Unknown
Radar Cross Section
Medium (>0.1 m² and <1 m²)

Expand to show TLE details & history

TLE from 9 hours ago
0 STARLINK-33891
1 63827U 25092Z   25133.16668981 -.01038436  00000-0 -38514-2 0  9993
2 63827  43.0011  78.5196 0001249 276.1807  64.3844 15.89469266  2489
Epoch: 2025-05-13T04:00Z
Definitive object data (Epoch: 2025-05-13T04:00:01.999Z)
Latitude
-13.24001°
Longitude
132.81259°
Altitude
305.824 km
Speed
7.726 km/s
True Right ascension
04h 15m 57s
True Declination
-13° 09' 30"
Sunlit
Object was in daylight at TLE epoch
Visualization TLE readout
Latitude
21.73989°
Longitude
170.11128°
Altitude
306.06 km
Speed
7.728 km/s
Apparent Right ascension
08h 02m 33s
Apparent Declination
-8° 52' 41"
Sunlit
Object is in daylight
Visualization observer readout
Local Sidereal Time
21:41:56
Azimuth
42.255° NE
Elevation
-51.877°
Doppler factor
1
Orbital elements
Apogee altitude
306.602 km
Perigee altitude
304.932 km
Semi-major axis
6,683.904 km
Eccentricity
0.0001249
Inclination
43.0011°
RAAN
78.5196°
Arg. of periapsis
276.1807°
True anomaly
64.39731°
Mean anomaly
64.3844°
Eccentric anomaly
64.39085°
Mean motion
3.9719 °/min
BSTAR
-0.0038514
Orbital period
90.64 mins
Loading maneuver chart data...
Loading SW <> Apogee altitude chart data...
Loading historical data...
Loading historical data...
Loading historical data...
Loading historical data...
Loading historical data...
Loading historical data...
Loading historical data...

STARLINK-33891 Visibility forecast

Observer location: undefined°, undefined°

Span
Click to sort rows by Start time (UTC) header in descending order
Start Az.
Max El. time (UTC)
Max El. Az.
Max El.
End time (UTC)
End Az.
4 mins2025-05-13 23:55:12.757Z226.541° WSW2025-05-13 23:57:12.757Z182.26° SSW31.4°2025-05-13 23:59:12.757Z90.36° ESE
4 mins2025-05-14 01:31:12.757Z284.137° WNW2025-05-14 01:32:12.757Z315.43° NNW33.349°2025-05-14 01:35:12.757Z67.423° ENE
|